KF5CFW Weather Reports


time (UTC)temp
F
wind
direction
speed
knots
gust
knots
rain 1hr
in
rain 24hr
in
rain mn
in
humidity
%
barometer
mb
20260831163053 98 167 0.0 1.7 0.00 0.00 0.00 38 1015.5
20260831161549 96 193 0.0 0.9 0.00 0.00 0.00 41 1015.5
20260831160045 94 225 0.0 0.9 0.00 0.00 0.00 43 1015.5
20260831154544 92 217 0.0 0.9 0.00 0.00 0.00 46 1015.5
20260831153039 91 222 0.0 0.9 0.00 0.00 0.00 49 1015.5
20260831151533 90 254 0.0 0.9 0.00 0.00 0.00 52 1015.5
20260831150030 88 253 0.0 0.9 0.00 0.00 0.00 54 1015.4
20260831144526 87 266 0.0 0.9 0.00 0.00 0.00 57 1015.3
20260831143027 86 211 0.0 0.9 0.00 0.00 0.00 59 1015.2
20260831141525 84 246 0.0 0.9 0.00 0.00 0.00 59 1015.4
20260831140027 83 318 0.0 0.9 0.00 0.00 0.00 57 1015.4
20260831134523 82 164 0.0 0.9 0.00 0.00 0.00 54 1015.2
20260831133031 81 208 0.0 0.9 0.00 0.00 0.00 49 1015.1
20260831131518 80 167 0.0 0.9 0.00 0.00 0.00 45 1014.7
20260831130016 80 225 0.0 0.9 0.00 0.00 0.00 43 1014.4
20260831124518 80 307 0.0 0.0 0.00 0.00 0.00 42 1014.3
20260831123012 79 153 0.0 0.9 0.00 0.00 0.00 45 1014.1
20260831121511 80 139 0.0 0.9 0.00 0.00 0.00 48 1014.0
20260831120011 80 153 0.0 0.9 0.00 0.00 0.00 51 1013.7
20260831114507 80 151 0.0 0.9 0.00 0.00 0.00 53 1013.6
20260831113004 80 151 0.0 0.9 0.00 0.00 0.00 55 1013.4
20260831111503 80 150 0.0 0.0 0.00 0.00 0.00 56 1013.2
20260831110002 81 174 0.0 0.9 0.00 0.00 0.00 57 1013.1
20260831104602 81 148 0.0 0.0 0.00 0.00 0.00 58 1013.2
20260831103105 81 187 0.0 0.9 0.00 0.00 0.00 58 1013.2
20260831101558 81 225 0.0 0.9 0.00 0.00 0.00 59 1013.1
20260831100103 82 156 0.0 0.9 0.00 0.00 0.00 60 1013.0
20260831094559 82 150 0.0 0.0 0.00 0.00 0.00 60 1013.0
20260831093054 82 150 0.0 0.9 0.00 0.00 0.00 60 1013.0
20260831091600 82 148 0.0 0.0 0.00 0.00 0.00 60 1013.0
20260831090051 82 148 0.0 0.9 0.00 0.00 0.00 60 1012.9
20260831084549 83 148 0.0 0.9 0.00 0.00 0.00 59 1012.8
20260831083047 83 148 0.0 0.0 0.00 0.00 0.00 58 1012.8
20260831081545 83 156 0.0 0.9 0.00 0.00 0.00 57 1012.7
20260831080100 84 194 0.0 0.9 0.00 0.00 0.00 56 1012.7
20260831074542 84 240 0.0 0.9 0.00 0.00 0.00 55 1012.6
20260831073101 85 231 0.0 0.9 0.00 0.00 0.00 53 1012.6
20260831071547 85 150 0.0 0.9 0.00 0.00 0.00 52 1012.6
20260831070036 86 328 0.0 0.9 0.00 0.00 0.00 50 1012.6
20260831064534 87 152 0.0 0.9 0.00 0.00 0.00 49 1012.7
20260831063041 87 163 0.0 0.9 0.00 0.00 0.00 48 1012.6
20260831061533 87 153 0.0 0.9 0.00 0.00 0.00 48 1012.6
20260831060031 87 146 0.0 0.9 0.00 0.00 0.00 48 1012.7
20260831054530 87 132 0.0 0.0 0.00 0.00 0.00 48 1012.7
20260831053029 87 144 0.0 0.9 0.00 0.00 0.00 48 1012.7
20260831051532 87 140 0.0 0.0 0.00 0.00 0.00 47 1012.5
20260831050025 87 140 0.0 0.0 0.00 0.00 0.00 47 1012.5
20260831044524 88 139 0.0 0.0 0.00 0.00 0.00 47 1012.4
20260831043023 88 139 0.0 0.0 0.00 0.00 0.00 47 1012.4
20260831041523 89 139 0.0 0.0 0.00 0.00 0.00 46 1012.3
20260831040023 89 140 0.0 0.0 0.00 0.00 0.00 45 1012.3
20260831034527 90 140 0.0 0.0 0.00 0.00 0.00 44 1012.3
20260831033033 90 139 0.0 0.0 0.00 0.00 0.00 44 1012.1
20260831031521 91 130 0.0 0.0 0.00 0.00 0.00 43 1012.0
20260831030021 91 129 0.0 0.0 0.00 0.00 0.00 43 1011.9
20260831024527 91 130 0.0 0.0 0.00 0.00 0.00 42 1011.8
20260831023019 92 130 0.0 0.0 0.00 0.00 0.00 42 1011.5
20260831021535 93 130 0.0 0.0 0.00 0.00 0.00 41 1011.3
20260831020019 93 130 0.0 0.0 0.00 0.00 0.00 40 1011.1
20260831014519 94 129 0.0 0.9 0.00 0.00 0.00 39 1010.9
20260831013017 94 153 0.0 0.9 0.00 0.00 0.00 38 1010.8
20260831011534 95 152 0.0 0.0 0.00 0.00 0.00 36 1010.6
20260831010017 95 152 0.0 0.9 0.00 0.00 0.00 35 1010.5
20260831004515 96 148 0.0 0.9 0.00 0.00 0.00 34 1010.4
20260831003016 96 148 0.0 0.9 0.00 0.00 0.00 33 1010.4
20260831001523 97 158 0.0 0.9 0.00 0.00 0.00 31 1010.4
20260831000012 98 133 0.0 0.9 0.00 0.00 0.00 31 1010.5
20260830234519 99 135 0.0 0.9 0.00 0.00 0.00 30 1010.6
20260830233011 101 72 0.0 0.9 0.00 0.00 0.00 29 1010.6
20260830231512 102 144 0.0 0.9 0.00 0.00 0.00 29 1010.5
20260830230009 104 152 0.0 1.7 0.00 0.00 0.00 27 1010.6
20260830224507 105 127 0.0 0.9 0.00 0.00 0.00 25 1010.7
20260830223009 105 195 0.0 0.9 0.00 0.00 0.00 26 1010.8
20260830221506 105 148 0.0 1.7 0.00 0.00 0.00 26 1010.8
20260830220005 106 109 0.0 1.7 0.00 0.00 0.00 24 1010.9
20260830214503 107 162 0.0 1.7 0.00 0.00 0.00 25 1010.9
20260830213004 106 179 0.0 1.7 0.00 0.00 0.00 25 1011.0
20260830211501 106 141 0.0 2.6 0.00 0.00 0.00 25 1011.2
20260830210059 106 172 0.0 2.6 0.00 0.00 0.00 25 1011.4
20260830204600 105 176 0.0 1.7 0.00 0.00 0.00 27 1011.5
20260830203056 106 162 0.0 2.6 0.00 0.00 0.00 26 1011.8
20260830201552 106 152 0.0 1.7 0.00 0.00 0.00 26 1011.8
20260830200048 106 153 0.0 1.7 0.00 0.00 0.00 27 1012.1
20260830194554 105 153 0.0 2.6 0.00 0.00 0.00 27 1012.3
20260830193042 105 118 0.0 1.7 0.00 0.00 0.00 28 1012.6
20260830191537 105 159 0.0 1.7 0.00 0.00 0.00 27 1012.7
20260830190032 104 156 0.0 1.7 0.00 0.00 0.00 30 1012.9
20260830184526 104 46 0.0 0.9 0.00 0.00 0.00 29 1013.0
20260830183025 103 210 0.0 1.7 0.00 0.00 0.00 30 1013.3
20260830181517 103 187 0.0 1.7 0.00 0.00 0.00 30 1013.4
20260830180015 103 151 0.0 2.6 0.00 0.00 0.00 31 1013.7
20260830174512 103 139 0.0 2.6 0.00 0.00 0.00 32 1013.9
20260830173008 102 354 0.0 1.7 0.00 0.00 0.00 33 1014.2
20260830171505 101 201 0.0 1.7 0.00 0.00 0.00 33 1014.4
20260830170100 100 167 0.0 0.9 0.00 0.00 0.00 37 1014.6
20260830164556 99 249 0.0 2.6 0.00 0.00 0.00 38 1014.8